Theta_e
350 349 346 344 342 341 342 345 346 345 346 344 347 349 348 348 349 348 345 346 341 336 337 344 346 345 343 343 341 338 338 337 332 333 337 342 339 338 337 340 352 349 347
352 348 347 346 344 341 341 342 344 345 346 348 348 348 348 349 349 350 348 351 347 345 345 344 345 349 345 343 341 343 341 341 338 332 337 341 339 343 344 346 349 354 350
351 348 347 347 346 343 342 342 343 345 346 348 346 347 347 348 348 349 346 346 346 346 345 344 345 344 341 342 342 343 342 344 341 338 336 338 340 340 342 344 349 349 353
351 349 346 347 348 346 346 344 343 346 344 345 341 341 345 346 348 349 348 347 347 348 347 346 346 344 343 342 341 341 341 341 340 338 337 337 339 339 341 338 337 341 342
349 348 347 348 348 348 346 344 344 345 343 343 342 338 336 344 349 348 349 348 345 346 348 347 347 348 346 342 340 338 341 339 337 335 333 334 334 336 336 337 338 338 340
348 348 348 347 347 346 346 345 344 344 345 343 341 338 338 346 342 343 347 346 346 346 344 344 346 347 346 340 338 341 342 340 337 336 334 332 332 336 338 337 337 334 333
348 348 347 347 346 346 346 345 344 344 345 344 343 344 344 346 339 339 342 347 346 345 342 342 344 350 345 345 341 338 337 337 339 339 336 336 335 338 338 336 335 335 334
346 347 348 348 346 345 346 346 345 344 344 344 343 344 344 345 333 335 339 343 345 344 343 344 342 342 342 343 344 343 343 344 340 341 340 342 341 341 342 339 336 334 333
348 348 349 349 347 345 344 344 346 346 344 344 344 344 345 345 331 330 335 339 340 341 344 345 345 344 339 335 342 341 342 343 339 334 335 334 334 335 339 338 333 326 324
342 347 350 348 347 346 344 343 346 346 346 346 345 346 342 347 328 327 331 339 337 337 337 338 334 338 332 330 341 339 337 338 337 337 337 336 336 337 334 337 332 328 325
342 344 347 349 347 348 347 344 346 346 345 346 345 347 348 346 343 324 324 339 339 335 337 339 342 331 323 320 326 339 337 335 335 332 331 331 332 333 335 335 334 333 328
341 341 340 348 350 349 345 345 344 346 345 344 346 345 348 349 333 324 321 326 332 338 338 340 338 322 316 316 323 328 324 325 329 326 325 325 325 325 327 330 333 335 336
337 336 337 341 349 349 347 345 345 345 345 343 343 343 344 344 344 323 321 320 323 336 338 334 323 315 313 317 319 323 323 326 325 324 324 324 325 328 328 327 328 329 333
332 333 336 338 338 347 349 348 346 345 345 343 342 342 342 342 340 337 328 324 321 326 327 331 323 321 320 322 323 319 323 324 325 325 324 326 328 326 325 326 325 324 323
331 331 334 339 343 344 346 339 346 351 344 344 344 343 339 335 338 332 329 332 331 327 327 326 325 323 323 323 324 324 323 323 325 325 325 325 324 324 323 324 323 322 320
329 327 327 328 335 340 337 328 319 315 315 310 312 334 341 326 317 313 311 311 311 311 326 326 326 325 324 325 325 326 326 326 325 324 323 322 321 321 320 321 320 319 318
326 325 325 324 328 331 332 329 327 324 315 314 310 308 314 321 310 309 307 308 308 314 326 326 327 327 327 326 325 323 321 322 323 322 320 320 320 322 318 318 319 318 318
325 317 324 328 327 328 326 327 326 323 323 325 321 313 306 306 306 305 307 310 316 317 325 326 327 326 324 324 322 321 320 320 320 319 319 319 318 318 316 315 315 314 314
325 324 326 327 327 325 328 327 326 325 325 326 327 320 310 302 301 302 305 334 329 328 326 326 326 324 325 324 322 321 320 320 320 319 318 318 318 318 315 317 319 313 314
327 324 325 328 328 328 328 328 325 322 323 324 323 325 320 314 315 314 319 328 329 328 324 324 323 325 323 322 321 321 320 318 318 317 317 317 318 320 319 319 319 318 317
328 323 323 323 325 326 327 328 324 322 322 322 323 326 314 322 323 324 324 326 328 327 325 324 323 323 323 323 322 320 319 318 317 316 316 317 318 319 320 319 318 317 315
326 322 321 321 323 324 324 324 325 322 322 323 324 326 305 324 328 328 327 327 328 328 326 326 325 325 325 324 322 319 317 316 316 317 317 316 316 320 320 318 316 316 315
324 322 321 322 325 326 325 328 327 324 323 325 327 332 318 324 329 330 329 329 329 326 326 327 326 324 325 324 323 321 318 317 317 319 317 316 315 315 315 312 313 311 310
325 325 323 326 327 327 329 327 328 322 329 330 332 331 326 328 331 332 331 330 328 328 329 328 326 326 326 324 323 322 321 320 319 320 319 317 315 311 313 312 311 311 311
326 326 327 329 326 325 327 327 327 330 332 332 330 328 327 330 333 331 330 330 330 328 327 327 325 325 326 324 324 323 313 303 317 310 318 317 316 315 313 313 313 313 312
328 328 329 327 324 326 327 328 325 329 330 332 332 330 325 328 327 328 330 330 329 328 328 326 325 325 325 325 324 313 294 294 307 300 319 319 317 317 316 315 315 314 314
Wind_Speed
10 8 8 8 7 7 8 7 5 5 5 5 5 7 6 7 6 6 5 6 6 4 3 5 5 4 4 4 4 3 4 4 4 3 2 2 2 2 3 5 7 7 5
12 9 9 10 9 8 8 7 5 5 6 6 5 9 8 7 7 7 7 7 6 6 6 5 6 3 3 4 4 6 5 5 4 4 2 2 4 5 6 6 9 7 5
12 12 9 10 11 10 10 8 8 7 8 8 7 9 8 8 7 7 8 7 6 6 6 7 7 5 4 3 3 3 2 1 2 2 2 2 3 3 3 3 3 4 3
12 12 11 12 12 12 10 10 11 10 9 10 9 8 8 7 7 6 6 6 6 5 6 6 6 6 7 6 5 5 3 2 2 2 2 3 2 3 1 1 3 2 4
12 12 13 13 11 10 10 9 10 10 10 11 9 6 6 6 6 6 6 7 6 6 6 6 6 7 11 8 4 6 4 3 3 3 2 1 2 1 3 2 2 2 4
13 14 13 12 10 10 10 10 10 11 11 10 11 11 10 7 9 11 9 6 7 6 7 7 6 8 8 10 10 8 6 5 5 4 2 3 3 3 3 2 2 2 3
11 12 13 13 11 11 11 10 11 11 10 11 9 8 9 7 10 11 12 6 7 8 8 6 6 5 8 6 8 10 9 9 8 5 5 5 4 6 3 3 4 4 4
10 11 12 13 13 10 11 12 11 9 11 10 9 9 7 7 10 11 11 6 6 7 7 7 7 6 5 6 6 5 6 6 7 5 6 6 6 4 6 4 3 2 3
10 14 14 14 14 12 13 13 10 10 8 9 7 8 8 7 11 12 8 5 4 6 6 7 7 7 8 10 5 6 6 6 4 7 6 9 10 8 6 3 3 1 3
6 10 10 10 12 13 14 11 11 9 9 8 8 9 10 10 11 14 10 4 6 5 6 6 9 8 10 9 6 5 6 6 2 1 3 4 4 6 4 5 2 4 3
6 6 8 9 12 13 13 10 10 9 9 10 10 8 10 11 9 14 14 8 7 5 5 4 5 10 11 10 10 6 6 4 3 2 4 4 4 4 4 4 5 5 4
6 5 7 9 9 9 13 11 12 11 12 10 11 9 8 9 11 13 15 15 8 7 5 5 5 7 9 11 10 8 7 3 1 2 2 3 3 3 4 3 3 4 6
5 6 6 7 11 12 12 13 10 13 11 10 9 9 8 5 6 12 16 15 8 6 4 6 6 6 5 5 4 5 6 3 2 2 3 3 3 4 2 2 3 3 3
6 6 5 8 9 12 8 10 10 11 12 11 10 9 8 7 7 6 7 6 6 3 2 3 2 3 3 1 2 5 3 4 4 4 3 3 2 1 2 2 1 1 1
5 5 5 7 10 9 5 2 6 8 9 11 11 11 10 8 11 13 12 8 8 8 6 2 2 3 2 3 3 3 3 4 4 3 3 3 2 1 2 2 1 0 1
6 3 4 4 6 4 2 3 6 3 10 17 17 13 9 13 13 17 18 17 15 17 4 4 5 5 5 4 4 4 4 5 4 3 2 2 2 2 1 2 0 1 0
7 5 3 3 1 4 7 7 6 5 14 14 13 21 14 15 16 18 18 16 15 14 4 4 5 6 6 5 4 4 4 4 4 2 2 3 2 1 1 1 1 2 2
7 7 4 4 4 4 3 6 4 8 9 7 14 10 12 20 13 15 14 14 5 2 4 5 6 5 5 5 5 5 4 4 3 3 4 4 3 3 2 2 1 2 2
8 5 7 6 5 7 7 4 5 4 6 9 9 9 4 4 5 7 20 8 8 8 5 5 5 5 5 5 6 5 5 5 4 4 3 3 4 4 3 3 3 4 4
8 11 9 7 7 7 6 6 6 4 7 12 14 14 5 6 4 4 6 7 8 7 5 5 5 5 5 5 4 4 4 4 4 4 4 3 4 3 3 3 3 2 1
7 6 9 6 8 9 9 10 8 7 8 5 4 11 14 9 8 6 8 7 7 6 6 5 5 6 6 5 5 5 4 5 5 5 5 4 4 3 3 2 2 2 2
7 5 4 5 6 5 6 7 8 8 7 6 6 5 17 9 8 7 6 6 6 6 6 7 7 7 7 8 6 5 5 5 4 5 4 4 3 3 3 3 3 2 3
8 6 5 4 5 5 3 3 5 9 9 9 11 8 11 10 10 9 8 7 6 6 5 7 7 6 6 6 7 7 7 6 5 5 4 4 4 3 2 2 2 2 2
8 8 8 6 6 4 4 4 5 6 5 7 6 8 11 13 12 11 10 8 6 6 7 8 7 9 8 7 5 5 5 5 5 6 8 5 4 4 3 2 3 4 3
6 6 6 5 4 3 4 4 2 2 3 3 5 6 7 11 11 10 9 8 8 8 8 8 8 10 11 11 9 9 9 13 8 7 4 6 6 6 4 3 4 4 4
7 7 5 4 5 4 3 1 2 1 3 4 3 1 5 7 7 8 8 9 9 9 9 7 8 11 12 10 11 13 11 13 10 10 6 5 5 5 4 5 6 4 5
Wind_Direction
185 186 171 167 181 171 180 196 202 139 171 220 216 214 190 199 200 183 195 181 203 180 238 274 269 190 175 175 195 202 232 174 213 303 253 243 203 255 311 308 295 257 243
189 185 189 164 176 176 184 186 158 180 187 236 244 212 191 200 206 185 188 201 196 198 213 211 250 240 247 212 197 184 188 196 168 187 219 259 228 219 251 247 259 243 231
182 188 186 182 176 186 189 180 173 186 198 225 236 218 188 196 203 200 189 200 207 213 198 202 227 227 250 245 231 261 281 164 195 169 212 239 273 268 279 259 282 316 305
190 188 194 197 189 185 184 187 180 187 195 212 212 202 195 193 206 207 194 193 212 218 225 223 230 221 223 220 220 226 226 238 197 197 217 212 200 247 252 245 307 323 301
191 190 197 205 198 182 178 179 187 181 186 203 190 231 221 202 205 206 205 205 205 216 227 231 222 224 222 206 199 245 212 212 218 235 243 231 243 254 224 234 251 269 273
191 196 192 198 199 191 187 182 179 193 188 191 197 204 207 213 206 198 194 201 213 214 224 225 221 227 224 226 226 236 206 200 214 195 214 224 242 216 221 213 225 268 297
224 202 194 198 199 198 198 181 190 191 191 201 198 191 208 211 214 214 208 203 209 214 217 219 217 215 209 226 243 242 249 239 217 188 211 214 215 215 195 211 222 215 233
220 216 206 198 203 199 199 200 193 190 196 196 199 199 200 215 203 209 214 215 221 218 211 216 214 233 225 215 230 235 236 226 228 220 221 248 229 235 202 201 219 234 302
244 218 210 202 203 200 203 202 193 185 189 201 194 196 199 215 203 211 195 211 224 229 217 215 209 222 226 219 216 241 251 258 244 229 257 273 276 252 234 133 243 126 284
336 273 234 210 200 200 206 205 195 188 188 184 192 193 197 211 199 209 193 188 220 228 242 241 233 226 226 214 204 213 242 249 232 313 325 323 315 284 231 217 174 223 208
279 298 239 211 201 206 200 196 196 190 178 183 196 199 203 209 204 199 193 197 210 217 226 246 248 236 229 208 200 199 215 168 214 287 301 298 294 288 282 236 225 210 201
311 319 301 257 211 194 208 192 189 189 194 192 195 203 205 208 192 211 196 210 188 196 213 230 249 272 236 205 184 195 175 163 184 257 285 285 276 276 265 243 243 216 220
309 310 302 291 288 243 197 212 194 197 198 199 197 205 207 193 204 207 198 206 199 205 200 233 217 221 156 155 209 168 159 193 189 230 246 249 226 242 272 285 306 327 359
283 288 293 295 275 263 210 211 205 199 199 198 195 198 190 174 196 187 190 191 194 210 265 181 185 181 177 202 189 196 202 192 193 221 236 244 257 223 229 217 243 320 6
267 279 296 293 286 276 244 267 247 216 222 198 200 187 185 191 209 188 172 181 195 199 162 111 171 218 218 235 245 234 206 204 214 214 237 242 238 209 241 279 203 221 213
259 261 277 297 317 318 79 93 83 350 342 10 328 191 197 200 173 176 182 186 171 143 143 172 198 205 217 219 224 241 210 200 199 173 171 191 212 207 251 330 21 85 121
244 249 248 271 234 124 119 125 119 70 55 50 17 0 257 178 178 185 186 190 160 144 167 187 196 194 209 205 226 196 185 177 165 157 167 202 203 188 161 168 127 113 116
233 229 203 190 188 173 168 162 165 113 111 15 11 341 352 312 183 186 161 126 126 231 169 182 204 195 184 192 187 174 160 154 155 187 193 188 190 182 193 174 165 161 167
215 203 209 203 200 200 189 199 233 206 156 126 345 284 231 32 316 185 164 172 173 178 182 190 192 178 197 190 174 163 159 170 172 162 186 184 200 170 190 184 179 179 174
223 219 207 216 219 219 237 241 236 214 176 177 174 224 184 165 227 199 197 184 173 174 167 181 182 194 177 153 147 152 153 153 162 167 180 200 209 176 183 190 186 180 191
222 222 208 206 229 228 230 240 233 218 222 216 235 208 181 189 190 194 209 181 169 167 162 180 179 158 146 153 152 158 180 182 175 175 174 191 198 176 185 182 162 159 159
210 207 193 197 208 205 210 218 219 221 215 223 184 188 179 195 190 171 194 200 175 177 166 162 161 159 163 159 164 164 177 199 192 173 171 176 188 182 162 169 172 184 185
194 181 183 201 226 239 237 225 221 214 206 196 205 212 188 197 199 175 188 203 183 167 159 163 160 155 167 174 169 170 166 189 200 164 163 181 176 172 165 181 198 197 199
193 190 195 204 225 223 231 212 190 193 212 221 247 227 193 193 190 182 184 192 167 158 168 164 163 162 160 173 177 186 168 174 172 168 161 164 182 171 152 162 187 213 223
194 202 189 196 213 202 202 197 181 231 215 165 167 176 175 189 184 168 179 167 157 156 166 164 165 164 165 169 172 188 182 166 164 156 144 150 171 183 190 204 207 222 226
203 197 197 171 181 196 161 217 138 137 287 5 2 183 171 187 168 165 164 160 160 162 169 171 167 159 166 178 182 184 178 169 163 169 153 157 178 200 202 217 230 227 239